Regional Weather Roundup
Issued by NWS

Home | Current Version | Previous Version | Graphics & Text | Print | Product List | Glossary On
Versions: 1 2 3 4 5 6 7 8 9 10 11 12 13 14 15 16 17 18 19 20 21 22 23 24 25 26 27 28 29 30 31 32 33 34 35 36 37 38 39 40 41 42 43 44 45 46 47 48 49 50
000
ASUS43 KLSX 290807
RWRMO

WEATHER SUMMARY FOR MISSOURI
NATIONAL WEATHER SERVICE SPRINGFIELD MO
300 AM CDT TUE JUL 29 2014

NOTE: "FAIR" INDICATES FEW OR NO CLOUDS BELOW 12,000 FEET WITH NO
       SIGNIFICANT WEATHER AND/OR OBSTRUCTIONS TO VISIBILITY.
       CURRENT SKY AND/OR WEATHER CONDITIONS ARE NOT AVAILABLE FOR
       CHILLICOTHE AND FARMINGTON.

MOZ001>031-035>038-043-044-053-054-290900-
...NORTHERN AND WESTERN MISSOURI...

CITY           SKY/WX    TMP DP  RH WIND       PRES   REMARKS
KANSAS CTY INT CLEAR     63  57  81 CALM      30.16F
KANSAS C DTWN  CLEAR     66  60  81 CALM      30.16F
LEE`S SUMMIT   CLEAR     65  59  81 CALM      30.17F
ST JOSEPH      CLEAR     56  55  97 CALM      30.17F
CHILLICOTHE      N/A     62  59  90 CALM      30.18R
KIRKSVILLE     CLEAR     55  54  96 W3        30.17R FOG

$$
MOZ066>068-077>081-088>096-101>105-290900-
...SOUTHWEST MISSOURI...

CITY           SKY/WX    TMP DP  RH WIND       PRES   REMARKS
SPRINGFIELD    CLEAR     61  56  83 CALM      30.16S
JOPLIN         CLEAR     63  58  83 CALM      30.16F

$$
MOZ032>034-039>042-045>050-055>058-069>072-290900-
...CENTRAL MISSOURI...

CITY           SKY/WX    TMP DP  RH WIND       PRES   REMARKS
COLUMBIA       CLEAR     58  54  86 CALM      30.15S
JEFFERSON CITY CLEAR     59  55  87 CALM      30.15S
ROLLA          CLEAR     53  50  89 CALM      30.14F
SEDALIA        PTCLDY    63  56  78 S6        30.17F
WHITEMAN AFB   CLEAR     60  51  71 S1        30.16S
OSAGE BEACH    CLEAR     57  52  82 CALM      30.16S

$$
MOZ051-052-059>065-290900-
...EAST CENTRAL MISSOURI...

CITY           SKY/WX    TMP DP  RH WIND       PRES   REMARKS
ST LOUIS INTL  CLEAR     63  55  75 CALM      30.13S
SPIRIT OF STL  CLEAR     54  52  93 CALM      30.12F
ST CHARLES     CLEAR     55  52  89 CALM      30.12S

$$
MOZ072>076-082>087-097>100-106>115-290900-
...SOUTH CENTRAL AND SOUTHEAST MISSOURI...

CITY           SKY/WX    TMP DP  RH WIND       PRES   REMARKS
CAPE GIRARDEAU CLEAR     59  56  89 CALM      30.10F
FARMINGTON     CLEAR     55  54  94 CALM      30.15S
POPLAR BLUFF   CLEAR     62  56  80 N3        30.10S
WEST PLAINS    CLEAR     61  54  77 N3        30.16F

$$


USA.gov is the U.S. government's official web portal to all federal, state and local government web resources and services.